CAPE
614 628 932 1163 1651 730 0 6 0 0 0 119 126 100 154 244 209 863 1158 1233 1079 1332 1715 2180 2600 2484 2235 2251 2630 2148 2132 2121 2075 2089 2063 2001 2096 1911 1467 1459 1683 1689 1397 1458 1496 1454 1478 1284 1358
672 812 1116 1240 1172 0 0 0 0 41 2 70 88 110 105 378 800 1367 1206 1167 1175 1308 1656 1655 2582 2538 2804 2796 2828 2812 2256 2161 1926 1873 1819 1798 1707 1663 1506 1612 1656 1685 1570 1102 1420 1394 1230 1161 945
675 1036 1443 1835 160 0 5 0 51 189 81 18 30 125 147 561 1078 984 1120 1159 1228 1447 1400 1834 2859 2648 2401 2699 2860 2657 2131 1902 2261 2134 2227 2020 1754 1761 1540 1683 1455 1515 1123 1023 1428 805 659 694 994
1147 1417 1656 1312 14 27 0 11 128 289 387 162 2 137 475 969 923 844 1127 1088 1453 1531 1413 2278 2796 2787 2456 2275 2333 2418 2278 1733 1830 1993 2007 1969 1898 1951 1788 1683 1519 1661 1189 692 896 1187 903 1260 1331
1071 1274 994 47 8 0 11 126 189 150 243 188 11 98 353 898 906 1154 1127 1196 1453 1449 1550 2311 2864 2883 2837 2400 2250 2210 2261 1873 1854 1868 1977 1867 1852 1687 1577 1738 1726 1602 1367 757 1327 1089 1262 992 892
1533 1267 437 138 10 0 7 12 333 248 385 509 113 113 471 1117 1324 1365 1213 1289 1256 1423 1537 2196 2866 3039 2834 2293 2236 2258 2271 2186 1922 2226 2161 2107 2153 1712 1680 1771 1701 1505 1046 1050 1463 1025 1315 1185 1357
2019 1957 267 26 0 0 0 0 75 240 379 387 253 95 653 954 1374 1460 1336 1169 1231 1354 1495 2176 2446 2552 2635 2634 2307 2296 2474 2278 2076 2127 2098 2113 1908 1875 1961 1787 1765 1579 1110 963 1357 1620 1385 1330 1294
1979 1860 345 7 0 0 0 0 0 35 356 587 440 109 267 844 1528 1705 1728 1388 1256 1317 1463 1837 2315 2483 2576 2407 2770 2526 2795 2367 2296 2422 2310 2090 1899 1848 1710 1894 1679 1799 1442 888 1532 1639 1499 1451 1191
2129 1584 451 18 0 11 0 0 0 30 255 798 696 390 245 921 1542 1619 1873 1714 1422 1344 1479 1643 1793 2250 2619 2507 2158 2566 2431 2541 2288 2463 2063 2120 2126 1892 1852 1658 1708 1595 1449 862 1015 1410 1378 1267 1046
1959 915 465 88 38 46 2 0 0 1 319 842 946 679 644 1351 1485 1339 1496 1428 1315 1234 1355 1455 1584 2001 2188 1824 2283 2153 2069 2332 1891 2286 2256 2029 1606 1606 1366 1763 1611 1567 1555 981 955 1022 1248 1117 607
893 815 482 349 314 125 0 0 0 0 49 678 968 1158 1168 1257 1398 1016 1004 1025 1106 1117 1232 1295 1428 1732 1798 1394 1763 1666 1967 1980 2098 2448 1979 1804 1695 1630 1152 1721 1293 1524 1617 1420 1095 1517 571 364 265
433 215 416 317 271 147 0 0 0 0 0 396 597 1219 1413 1155 1200 981 891 744 931 1060 1091 1299 1419 1601 1519 1478 1540 1817 1542 1992 2327 2107 2059 1955 1908 1670 1479 1415 1732 1726 2429 1619 1156 456 288 259 250
0 9 0 33 0 11 0 0 0 0 0 242 573 1327 1427 1306 891 1038 825 800 922 1141 1252 1410 1558 1771 1708 1841 1604 1672 1342 1728 1976 2068 2118 1800 1571 1677 1499 1379 1123 1171 1413 2806 2104 1332 559 717 367
0 0 0 0 0 0 0 0 0 0 6 189 760 1112 1372 1361 886 988 1060 827 943 1182 1417 1504 1667 1815 1832 1866 1749 1715 1490 1401 1626 1585 1633 2074 1725 2155 1299 1364 678 1683 1988 2447 1284 2314 961 596 334
0 0 0 0 0 0 0 0 0 7 44 203 671 988 1195 1384 1046 895 1212 1113 867 1106 1330 1515 1817 1757 1754 1861 1834 1745 1471 1466 1382 1256 1786 2087 2173 2534 2530 1505 951 1272 1758 2258 1704 1926 1298 996 524
0 0 0 0 0 0 0 0 0 0 0 0 0 69 680 1305 1247 929 1078 1377 1131 1135 1459 1607 1586 1718 1743 1684 1686 1532 1277 1378 1275 1146 1327 1987 2256 2165 2179 2186 1215 1059 1312 2397 1590 2175 1520 997 799
0 0 0 0 0 0 0 0 0 0 0 0 0 0 168 1024 1449 1322 1093 1302 1474 1621 1847 1957 1929 1697 1883 1838 1690 1621 1547 1452 1289 1440 1391 1708 1855 1798 2053 2122 1111 1530 1317 1470 2000 2200 1449 992 823
0 0 0 0 0 0 0 0 0 0 0 0 0 0 9 835 1560 1535 1324 1241 1515 1888 2108 2338 2252 2067 2183 2019 1962 1520 1242 1471 1504 1726 1787 1959 1670 2048 2218 2957 2239 1553 1040 994 1095 1280 1396 1196 1108
0 0 0 0 0 0 0 0 0 0 0 0 0 0 0 913 1227 1635 1549 1446 1469 1873 2271 2553 2573 3168 2449 2210 2050 1605 1198 1437 1817 1857 2083 2367 2156 2139 2654 1748 2397 2115 1473 1166 1386 1588 1510 1246 1203
0 0 0 0 0 0 0 0 0 0 0 0 0 0 0 701 1204 1584 1765 1754 1644 1939 2370 2863 3044 3236 3001 2547 2898 2118 1718 1483 1861 2071 2501 2114 2038 2348 2199 2266 2300 2190 2774 1493 1477 1768 1376 949 1110
0 0 0 0 0 7 0 0 0 0 0 0 0 0 0 794 1361 1735 1674 1936 1852 2008 2420 3034 3518 3697 3449 3476 2687 2653 2462 2373 2291 2546 2571 2659 2231 2461 2490 2242 2086 2112 1925 2866 1902 2002 1831 1501 1376
0 0 0 0 24 48 31 8 0 0 0 0 0 0 0 556 1355 1755 1866 1934 1959 2018 2415 3476 3964 4131 3608 3895 3457 3744 2698 2538 2376 2450 2362 2405 2618 2449 2376 2280 2148 2062 2676 2420 2693 2432 2491 2355 2244
0 0 0 56 121 130 89 82 5 0 0 0 0 0 0 302 1058 1516 2022 1974 1927 2005 2208 3517 3905 4501 4499 4391 3972 3334 3381 2387 2306 2762 2536 2927 2861 2413 1893 1865 1890 1756 1861 2174 2178 1891 1928 2110 2225
0 0 73 147 189 222 203 149 95 16 0 0 0 2 0 0 80 1029 1535 2118 2211 2003 1997 2573 3704 4546 4615 4153 3524 4427 4156 3400 2712 2718 2464 3399 2697 2559 2304 2198 2354 2093 2254 2338 2421 1850 1505 1500 1753
0 34 146 184 199 216 202 142 107 51 0 0 0 6 0 0 0 44 940 1598 2176 2314 2495 2196 3776 4073 3713 3408 3598 3368 3612 3627 3430 3207 3932 1889 1622 1686 2195 2664 2390 2621 2383 2305 2139 2057 1495 1396 1602
36 78 135 91 102 166 189 108 68 57 10 0 0 0 37 10 0 0 0 378 1731 2082 2969 2608 3237 3798 3503 3367 3856 3680 3619 3353 3195 3247 2921 1723 867 655 1000 2007 2219 2112 1905 1813 2162 2333 1290 1417 1786
52 15 92 64 168 142 56 196 181 24 38 85 180 728 1623 2193 2027 1634 894 142 1068 1955 2351 2613 3191 3629 3421 3377 3597 3694 3622 3555 3377 3100 3217 1878 1414 749 1364 2239 2038 2134 1943 1797 1752 2310 1185 1672 1668
18 30 128 152 188 239 34 161 233 188 133 110 448 1719 2853 2807 2414 1612 1082 721 992 1799 2139 2527 2914 3332 3358 3374 3615 3665 3622 3693 3549 3567 2682 1605 1349 1838 1871 2288 2338 2252 1972 1697 1785 2173 1433 1362 2236
115 72 48 104 158 267 299 174 217 265 219 587 1434 2751 3406 3168 2850 2053 1555 1564 1694 1840 2132 2540 2880 3257 3462 3781 3719 3786 3653 3750 3805 3148 2078 1558 1894 2256 2479 2284 2109 1945 1918 1624 1647 1564 1127 1220 1181
206 252 203 300 289 267 236 168 171 312 569 2160 2342 3213 3316 2937 3080 2926 2543 2287 2060 2092 2423 2706 3063 3372 3485 3714 3880 3764 3815 3872 3414 2320 1665 1560 2139 2544 2541 2109 1901 1713 1634 1674 1599 1366 1065 1083 933
CIN
-213 -179 -118 -92 -4 -25 -0 -29 -0 -0 -0 -24 -14 -21 -10 -11 -0 -0 -35 -34 -37 -16 -11 -0 -1 -0 -0 -0 -0 -0 -0 -0 -0 -0 -0 -3 -0 -0 -0 -0 -0 -0 -0 -0 -0 -0 -0 -0 -0
-190 -170 -119 -104 -8 -0 -0 -0 -0 -43 -20 -84 -46 -40 -49 -5 -22 -31 -48 -48 -21 -9 -8 -6 -2 -0 -0 -0 -0 -0 -0 -0 -0 -0 -0 -0 -0 -0 -1 -0 -0 -0 -0 -0 -0 -0 -0 -0 -0
-234 -172 -98 -3 -3 -0 -0 -0 -60 -64 -97 -89 -79 -44 -58 -27 -42 -33 -49 -63 -16 -0 -0 -0 -0 -0 -0 -0 -0 -0 -0 -0 -0 -0 -0 -0 -1 -2 -1 -0 -1 -0 -0 -0 -0 -0 -0 -0 -0
-178 -141 -96 -5 -4 -14 -0 -5 -76 -60 -49 -77 -6 -42 -43 -48 -40 -41 -65 -52 -14 -0 -0 -14 -0 -0 -0 -0 -0 -0 -0 -6 -0 -0 -0 -0 -0 -0 -0 -1 -0 -0 -0 -0 -0 -0 -0 -0 -0
-175 -138 -2 -9 -0 -0 -30 -85 -74 -84 -66 -65 -111 -71 -53 -52 -51 -38 -50 -30 -10 -0 -0 -0 -0 -0 -0 -0 -0 -0 -0 -0 -0 -0 -0 -0 -0 -0 -1 -0 -0 -0 -0 -1 -0 -0 -0 -0 -0
-87 -130 -0 -15 -0 -0 -29 -35 -45 -45 -46 -54 -82 -85 -67 -54 -34 -22 -23 -18 -5 -1 -0 -0 -0 -0 -0 -0 -0 -0 -0 -0 -0 -0 -0 -0 -0 -0 -1 -0 -0 -0 -0 -0 -0 -0 -0 -0 -0
-49 -4 -1 -11 -0 -0 -0 -0 -21 -46 -33 -42 -94 -64 -77 -88 -40 -24 -19 -14 -7 -3 -0 -0 -0 -0 -0 -0 -0 -0 -0 -0 -0 -0 -0 -0 -0 -0 -0 -0 -0 -0 -0 -0 -0 -0 -0 -0 -0
-61 -22 -2 -27 -0 -1 -0 -0 -0 -33 -23 -46 -70 -63 -77 -99 -66 -23 -8 -8 -5 -4 -1 -0 -0 -0 -0 -0 -0 -0 -0 -0 -0 -0 -0 -0 -0 -0 -0 -0 -0 -0 -0 -0 -0 -0 -0 -0 -3
-59 -2 -0 -2 -0 -45 -0 -0 -0 -68 -42 -56 -48 -68 -142 -120 -103 -59 -23 -15 -19 -6 -1 -0 -0 -0 -0 -0 -0 -0 -1 -0 -0 -0 -0 -2 -0 -0 -0 -0 -4 -0 -0 -1 -0 -0 -0 -0 -3
-12 -0 -0 -10 -33 -46 -12 -0 -0 -3 -29 -36 -49 -85 -102 -126 -120 -112 -77 -70 -73 -46 -9 -0 -0 -0 -0 -0 -0 -0 -0 -0 -0 -0 -0 -0 -0 -0 -0 -2 -3 -0 -0 -0 -0 -0 -0 -4 -0
-9 -5 -0 -9 -16 -26 -2 -0 -0 -0 -88 -10 -14 -70 -105 -122 -150 -152 -146 -115 -103 -91 -40 -6 -0 -0 -0 -0 -0 -0 -0 -0 -0 -0 -0 -0 -0 -0 -0 -0 -0 -0 -0 -0 -0 -0 -0 -0 -0
-27 -30 -15 -21 -28 -42 -0 -0 -0 -0 -2 -11 -12 -46 -91 -125 -139 -151 -153 -150 -138 -120 -86 -26 -1 -0 -2 -2 -0 -0 -0 -0 -0 -0 -0 -0 -0 -0 -0 -0 -0 -0 -0 -0 -0 -0 -0 -0 -0
-0 -53 -0 -38 -0 -69 -0 -0 -0 -0 -0 -38 -42 -70 -89 -84 -125 -144 -151 -156 -142 -137 -98 -50 -11 -0 -5 -0 -2 -0 -0 -0 -0 -0 -0 -0 -0 -0 -0 -0 -0 -0 -0 -0 -0 -0 -0 -0 -1
-0 -0 -0 -0 -0 -0 -0 -0 -0 -0 -22 -32 -75 -81 -80 -86 -95 -131 -158 -176 -170 -141 -114 -74 -40 -9 -6 -4 -3 -1 -0 -0 -0 -0 -0 -0 -0 -0 -0 -0 -0 -0 -0 -0 -0 -0 -0 -0 -0
-0 -0 -0 -0 -0 -0 -0 -0 -0 -22 -75 -37 -46 -74 -98 -105 -112 -141 -141 -153 -174 -145 -126 -112 -68 -41 -17 -6 -1 -1 -7 -1 -2 -2 -0 -0 -0 -0 -0 -0 -0 -0 -0 -0 -0 -0 -0 -0 -0
-0 -0 -0 -0 -0 -0 -0 -0 -0 -0 -0 -0 -0 -90 -70 -126 -136 -137 -149 -149 -164 -156 -136 -113 -108 -80 -40 -17 -10 -4 -5 -3 -3 -9 -0 -0 -0 -0 -0 -0 -0 -0 -0 -0 -0 -0 -0 -0 -0
-0 -0 -0 -0 -0 -0 -0 -0 -0 -0 -0 -0 -0 -0 -76 -103 -164 -167 -172 -157 -174 -143 -119 -96 -84 -102 -58 -25 -6 -7 -4 -4 -1 -0 -0 -1 -0 -0 -0 -0 -0 -0 -0 -0 -0 -0 -0 -0 -0
-0 -0 -0 -0 -0 -0 -0 -0 -0 -0 -0 -0 -0 -0 -14 -77 -146 -181 -189 -173 -183 -180 -130 -82 -58 -55 -39 -21 -9 -7 -15 -6 -0 -0 -0 -0 -16 -0 -0 -0 -0 -0 -0 -0 -0 -0 -0 -0 -0
-0 -0 -0 -0 -0 -0 -0 -0 -0 -0 -0 -0 -0 -0 -0 -67 -113 -165 -177 -207 -202 -205 -161 -111 -65 -4 -17 -28 -17 -20 -45 -5 -0 -0 -0 -0 -0 -0 -0 -0 -0 -0 -0 -0 -0 -0 -0 -0 -0
-0 -0 -0 -0 -0 -0 -0 -0 -0 -0 -0 -0 -0 -0 -0 -40 -82 -180 -193 -207 -225 -229 -198 -125 -71 -20 -17 -15 -2 -1 -14 -2 -0 -0 -0 -0 -0 -0 -0 -0 -0 -0 -0 -0 -0 -0 -0 -0 -0
-0 -0 -0 -0 -0 -0 -0 -0 -0 -0 -0 -0 -0 -0 -0 -38 -53 -160 -209 -225 -220 -229 -217 -149 -74 -25 -24 -0 -3 -2 -0 -0 -0 -0 -0 -0 -0 -0 -0 -0 -0 -0 -0 -0 -0 -0 -0 -0 -0
-0 -0 -0 -0 -0 -0 -0 -0 -0 -0 -0 -0 -0 -0 -0 -32 -67 -103 -208 -231 -229 -202 -183 -137 -79 -30 -27 -2 -0 -0 -2 -0 -0 -0 -0 -0 -0 -0 -0 -0 -0 -0 -0 -0 -0 -0 -0 -0 -0
-0 -0 -0 -0 -0 -0 -0 -0 -0 -0 -0 -0 -0 -0 -0 -20 -53 -68 -127 -221 -201 -200 -200 -167 -184 -94 -18 -3 -0 -11 -1 -0 -0 -1 -0 -0 -0 -0 -0 -0 -0 -0 -0 -0 -0 -0 -0 -0 -0
-0 -0 -0 -0 -0 -0 -0 -0 -0 -0 -0 -0 -0 -1 -0 -0 -15 -60 -95 -158 -217 -186 -201 -176 -123 -71 -65 -22 -43 -2 -0 -0 -0 -4 -3 -0 -1 -0 -5 -0 -0 -0 -0 -0 -0 -0 -0 -0 -0
-0 -0 -0 -0 -0 -0 -0 -2 -0 -0 -0 -0 -0 -0 -0 -0 -0 -35 -88 -127 -215 -207 -206 -212 -115 -92 -118 -91 -65 -51 -12 -4 -5 -4 -3 -0 -33 -9 -2 -0 -0 -0 -0 -0 -0 -0 -0 -0 -0
-0 -0 -0 -0 -6 -8 -17 -1 -0 -3 -2 -0 -0 -0 -32 -36 -0 -0 -0 -98 -173 -241 -186 -221 -180 -122 -127 -111 -73 -55 -26 -19 -10 -1 -3 -0 -31 -4 -3 -0 -0 -0 -0 -0 -0 -0 -0 -0 -0
-2 -14 -1 -5 -11 -0 -6 -4 -0 -12 -11 -3 -24 -23 -24 -59 -74 -90 -100 -104 -151 -236 -241 -254 -202 -143 -141 -128 -98 -71 -48 -30 -3 -2 -1 -11 -2 -18 -7 -0 -0 -0 -0 -0 -0 -0 -0 -0 -0
-4 -5 -0 -0 -0 -0 -40 -6 -0 -0 -0 -11 -23 -26 -43 -88 -127 -144 -138 -134 -187 -188 -222 -244 -220 -169 -162 -133 -109 -84 -66 -34 -12 -4 -13 -44 -40 -2 -0 -0 -0 -0 -0 -0 -0 -0 -0 -0 -0
-4 -0 -7 -0 -11 -0 -0 -0 -0 -1 -6 -28 -15 -38 -56 -91 -125 -184 -168 -191 -193 -215 -205 -215 -181 -140 -131 -109 -112 -91 -62 -30 -11 -9 -42 -57 -19 -0 -0 -0 -0 -0 -0 -0 -0 -0 -0 -0 -0
-1 -0 -1 -0 -0 -0 -0 -5 -0 -13 -6 -18 -25 -33 -83 -113 -53 -76 -139 -207 -203 -208 -190 -167 -116 -90 -100 -88 -80 -79 -38 -21 -28 -59 -80 -66 -9 -0 -0 -0 -0 -0 -0 -0 -0 -0 -0 -0 -0
Wind_Speed
12 9 1 4 8 8 12 12 8 11 8 4 4 1 2 5 4 6 9 12 18 18 20 20 18 17 16 15 15 15 14 14 14 13 12 11 11 10 11 11 9 10 11 10 11 11 10 10 11
8 5 4 5 8 10 12 8 13 11 9 6 5 3 4 6 4 10 14 12 18 18 19 19 18 18 16 16 15 15 15 14 14 13 12 11 10 9 9 10 10 10 9 10 10 11 11 11 10
7 1 5 6 3 11 11 10 9 8 5 2 2 5 1 5 4 14 17 18 17 15 17 18 17 17 17 15 14 14 14 14 12 12 12 10 9 8 8 10 10 9 10 10 9 11 11 11 10
6 4 6 7 12 12 9 8 6 6 3 1 1 5 5 3 11 10 19 19 18 15 15 22 16 16 17 16 14 14 15 14 13 11 11 11 10 9 10 9 9 10 10 10 10 10 12 10 12
5 4 7 6 11 8 7 6 2 2 3 3 2 5 6 9 9 17 19 17 17 15 15 19 17 17 16 16 15 14 14 13 13 13 12 10 9 8 8 9 10 10 10 10 9 12 11 11 10
6 5 4 7 10 8 7 5 2 2 3 5 2 4 7 11 14 17 17 17 17 16 16 19 18 17 17 17 16 15 14 13 12 12 13 11 11 9 9 8 10 10 10 9 10 11 11 11 10
9 9 6 5 7 7 9 6 3 4 0 1 4 3 7 12 13 16 16 15 15 15 14 16 17 17 18 15 16 15 15 14 13 12 11 11 11 10 10 10 11 10 10 9 9 10 11 10 9
7 6 3 1 5 6 7 6 5 5 1 6 8 4 6 14 15 15 15 15 14 14 14 14 14 15 14 12 14 14 13 14 13 12 13 13 11 10 10 8 9 11 10 9 8 12 10 8 6
7 8 6 1 3 4 5 9 5 3 6 8 8 3 5 18 17 16 15 16 14 13 14 14 14 13 12 11 12 13 13 14 12 11 10 9 11 12 12 8 12 10 10 10 10 9 10 8 6
9 8 6 4 5 8 10 10 11 6 7 10 10 8 12 21 17 18 17 17 18 17 16 14 14 15 14 11 12 12 12 10 11 10 12 10 5 6 3 9 10 9 11 11 11 10 9 9 9
6 13 8 11 10 12 13 12 8 8 10 11 14 14 17 23 20 18 19 18 18 18 14 15 14 13 14 10 10 7 8 7 7 9 8 7 5 6 6 7 7 8 11 9 10 11 9 11 8
12 15 13 17 15 16 15 16 13 7 13 2 10 19 21 23 22 21 18 17 18 18 17 16 15 13 14 10 9 10 8 8 7 8 9 6 6 6 5 5 8 5 5 7 8 7 9 9 7
15 19 17 16 14 13 16 17 17 17 9 7 9 20 22 22 23 20 19 17 17 18 17 17 15 14 13 12 10 8 8 8 9 8 10 8 7 6 5 4 6 7 9 7 7 6 6 7 8
14 15 16 16 19 14 18 18 13 15 3 10 11 17 19 22 23 21 21 20 19 18 18 17 17 15 14 13 11 8 8 8 7 8 8 11 7 4 7 6 7 6 7 7 7 9 8 8 8
13 17 18 19 17 18 15 21 17 14 2 9 12 13 16 19 22 24 22 21 20 17 18 18 18 17 16 14 12 10 9 8 7 8 9 11 9 6 7 7 6 9 9 8 7 7 8 8 8
16 13 14 16 13 11 11 17 14 5 6 7 8 10 14 20 22 22 21 20 19 18 18 18 16 18 17 14 11 10 9 10 9 9 8 11 12 12 10 8 7 7 7 8 8 7 8 9 8
15 15 18 15 10 6 12 18 15 5 9 13 14 11 13 17 22 22 22 22 21 19 18 18 17 18 17 14 11 11 11 10 9 9 9 11 12 12 11 10 7 7 7 7 8 7 9 6 8
19 19 19 17 17 14 15 18 14 19 17 17 16 14 11 19 24 22 23 22 21 21 19 18 15 16 16 12 10 10 10 10 10 10 10 12 11 13 11 8 8 8 8 8 8 9 10 9 9
23 24 22 18 10 17 15 20 17 15 21 19 19 14 14 19 17 21 22 21 22 21 21 20 19 16 13 11 12 10 11 11 10 10 11 12 11 13 11 9 8 9 9 9 9 9 10 9 9
24 24 23 22 15 20 18 21 15 16 22 17 21 14 14 13 18 21 23 23 23 23 22 21 20 18 16 12 10 9 10 10 10 10 10 11 13 12 11 11 10 11 8 10 11 11 9 10 8
25 23 23 24 19 18 17 22 21 15 16 16 16 14 12 15 20 21 24 25 23 24 23 21 20 19 17 15 10 9 8 8 8 10 10 12 13 12 12 11 10 9 10 8 12 12 13 10 8
22 20 24 22 22 17 17 14 17 12 17 14 15 13 13 14 18 20 22 24 24 22 21 20 20 19 18 17 13 14 12 11 10 10 9 10 12 13 13 12 12 11 9 10 9 9 10 10 10
19 19 22 19 21 20 23 13 12 13 14 15 17 15 13 14 16 20 22 23 23 24 23 22 23 23 19 18 15 14 14 11 9 7 10 12 10 12 11 13 13 12 11 11 12 11 11 10 9
14 16 14 14 14 15 15 18 15 12 8 13 16 12 10 9 12 15 18 20 20 22 23 20 20 20 20 19 20 16 14 12 9 11 8 7 8 7 11 14 11 11 11 11 10 11 12 11 10
10 15 13 14 14 13 15 13 7 9 14 7 13 13 9 6 6 11 15 18 21 24 24 20 20 20 20 21 20 19 17 15 14 12 6 8 5 3 9 9 10 9 11 10 8 9 11 11 9
6 14 11 14 10 11 21 10 11 14 9 5 5 7 9 13 13 11 13 16 20 24 24 22 22 20 20 21 19 16 16 11 12 10 7 7 8 10 8 9 9 10 10 9 9 7 9 10 8
7 6 10 10 12 11 14 24 17 14 12 7 11 10 10 11 13 16 16 13 16 21 24 24 22 21 21 20 16 16 15 15 11 8 6 7 8 6 8 8 9 10 11 10 11 9 9 8 9
11 4 9 7 11 14 9 18 14 14 17 10 14 11 11 10 11 11 11 12 13 18 19 22 21 21 21 20 17 15 15 14 11 9 9 8 7 7 6 9 9 9 9 10 10 9 9 9 7
8 12 11 14 9 16 11 11 11 12 10 13 10 11 11 10 9 6 3 6 9 13 16 17 18 20 20 18 18 16 15 15 12 10 9 9 8 6 7 8 8 8 10 9 10 11 10 10 10
6 5 9 10 12 14 15 16 10 0 6 7 8 8 9 6 11 5 5 8 10 13 12 14 14 15 14 14 15 16 15 14 13 11 11 10 8 7 7 7 8 7 8 8 10 10 10 10 11
Wind_Direction
181 193 254 254 237 240 45 60 25 36 71 42 96 245 49 358 313 29 132 142 147 149 146 160 151 155 151 144 142 141 139 140 140 144 149 154 153 158 166 161 146 128 127 125 121 130 121 125 123
165 153 225 272 269 48 60 33 43 35 67 87 118 160 161 84 74 117 137 153 157 150 148 156 154 161 153 150 149 145 145 145 148 155 154 159 163 170 157 147 131 126 130 125 132 129 130 132 136
174 184 250 269 304 43 35 44 53 79 104 42 127 325 47 76 130 146 127 155 157 155 155 137 159 159 156 155 153 151 149 151 154 161 155 157 157 163 162 141 140 136 135 135 136 136 137 138 138
173 202 232 276 44 68 18 41 69 118 145 348 60 105 114 2 140 139 143 154 153 165 154 134 159 161 163 160 162 160 156 157 159 160 153 154 155 158 155 152 151 148 147 146 149 140 138 136 131
228 254 247 75 61 38 61 24 141 104 54 75 310 105 83 116 120 135 149 157 158 159 144 149 164 163 167 168 170 167 162 161 164 164 160 157 157 144 154 157 146 148 155 157 152 144 139 136 138
222 265 285 28 40 65 56 49 281 321 83 106 224 134 108 128 149 151 156 162 161 161 152 149 164 167 167 174 175 172 171 166 168 172 168 165 163 153 153 156 145 151 150 156 149 150 154 150 150
272 261 20 356 36 46 31 10 306 335 192 147 110 183 107 164 151 156 160 166 162 160 161 153 166 173 167 178 179 179 177 173 174 175 167 165 161 163 157 160 152 159 153 165 164 147 151 157 165
279 268 247 227 18 53 34 342 15 303 358 108 164 183 167 168 156 162 162 167 169 166 165 164 172 174 173 173 180 185 187 178 178 185 181 174 166 166 168 153 167 158 161 170 171 155 155 165 167
256 256 248 245 329 8 27 336 9 346 229 206 180 144 102 144 159 168 167 169 174 175 173 173 172 169 170 177 175 185 202 184 182 190 178 180 186 176 165 163 147 163 172 171 176 165 168 170 192
249 275 302 353 327 318 319 319 313 260 223 195 189 142 154 151 169 174 179 177 179 180 178 179 177 167 183 175 167 195 183 201 198 195 170 212 171 170 172 153 164 183 178 178 177 180 177 200 193
231 265 325 302 307 316 311 301 325 268 240 221 202 172 163 166 175 186 188 185 184 180 180 181 181 177 181 184 171 196 189 199 196 197 184 221 171 164 208 160 180 179 190 186 190 175 203 202 231
257 249 264 286 300 304 307 316 305 287 286 12 203 166 177 177 180 187 194 189 184 182 183 180 182 180 191 181 190 186 190 189 187 201 194 190 208 183 222 201 154 186 197 197 217 193 205 192 214
246 269 277 276 279 289 304 298 301 298 273 171 173 169 184 186 184 190 189 192 190 185 183 182 181 185 193 188 189 204 202 196 191 182 187 211 210 196 199 207 226 195 172 185 195 219 210 191 214
280 290 285 278 279 278 286 288 288 290 316 187 192 191 193 194 189 184 192 190 193 188 184 181 186 190 196 197 196 194 201 192 203 202 192 213 222 178 207 200 211 185 235 170 211 193 199 215 212
270 270 273 263 261 262 276 275 256 261 205 202 205 212 211 205 192 192 191 190 189 189 186 185 187 190 198 198 195 194 195 213 206 218 201 206 219 205 247 214 209 187 203 209 189 211 209 214 223
259 271 271 267 249 260 241 260 258 22 275 247 262 240 222 211 203 196 190 189 186 192 190 188 188 188 195 197 197 204 199 204 209 208 212 210 213 218 219 240 209 203 216 190 201 210 232 209 221
234 256 261 260 277 264 251 271 272 275 268 277 275 268 230 215 209 199 191 189 186 189 189 192 193 192 192 196 202 203 201 215 209 209 204 193 220 220 233 235 214 193 213 197 197 219 221 227 226
250 240 246 258 274 256 261 266 264 273 276 269 262 273 242 225 209 202 194 190 188 184 187 192 196 198 191 190 201 200 201 210 213 210 210 198 206 213 223 252 247 204 219 215 218 222 208 230 232
269 270 273 284 257 274 265 278 275 277 272 261 261 257 249 229 200 204 195 191 186 187 187 188 194 193 191 194 194 198 205 205 211 214 214 201 208 212 217 219 226 225 235 232 207 224 228 224 230
253 261 259 263 257 272 275 270 277 276 268 264 259 254 248 216 203 200 195 191 194 187 188 186 192 191 196 198 201 202 207 206 217 215 213 214 209 213 216 214 218 215 238 225 233 227 232 227 226
248 251 259 257 261 241 266 268 266 250 244 248 250 245 247 220 210 194 196 197 192 191 189 187 190 192 195 203 194 194 207 225 208 219 218 212 218 216 218 219 234 230 231 230 226 225 224 234 211
262 252 245 260 252 252 252 277 276 284 272 258 247 225 228 211 208 197 197 201 199 193 188 188 186 191 194 197 192 196 203 206 209 213 215 220 213 220 220 224 225 231 232 221 232 230 229 226 229
273 276 266 247 251 253 252 254 258 260 262 260 249 225 209 199 197 200 199 204 201 193 191 192 188 178 187 194 205 195 216 214 212 205 214 216 202 222 221 216 221 221 228 229 229 218 224 225 228
281 269 253 269 270 253 236 256 264 258 273 271 233 224 228 216 201 195 197 194 204 198 198 197 185 191 179 190 198 203 206 218 207 210 203 216 215 199 217 224 219 226 223 232 224 230 226 229 223
237 242 243 230 223 242 244 264 268 290 278 273 296 291 295 279 247 202 197 194 195 202 197 190 186 190 185 192 195 202 211 208 213 219 198 213 173 231 208 221 214 220 224 226 240 231 234 227 220
255 260 272 287 281 333 344 219 245 235 263 304 301 294 292 282 279 262 244 203 198 198 192 190 184 187 186 193 194 196 202 209 217 213 216 229 192 207 221 210 218 229 228 226 228 233 230 221 220
137 235 307 247 262 272 212 230 268 254 247 50 345 339 328 323 300 287 280 240 201 196 195 186 180 187 187 191 186 190 196 213 211 208 198 188 229 231 230 225 208 220 225 218 218 231 218 226 213
263 178 212 190 256 247 236 273 281 280 280 336 321 342 339 338 318 299 272 237 198 194 189 183 184 187 187 187 185 186 193 200 196 189 191 186 194 231 239 229 223 207 213 216 220 230 217 214 224
211 219 242 273 217 257 270 257 256 253 319 316 330 353 350 340 339 334 257 161 180 183 182 183 182 185 183 183 182 182 188 186 181 185 188 185 198 209 225 230 233 226 214 208 219 225 224 202 215
271 312 296 272 230 241 272 280 303 278 287 336 349 356 8 349 353 20 111 142 154 156 159 174 174 180 186 185 180 183 180 175 173 180 183 183 198 200 217 227 229 234 228 206 208 220 219 219 210